Presure
152 86 124 117 111 89 105 102 118 103 139 100 141 134 102 90 106 110 131 114 110 114 104 138 116 132 140 139 120 116 121 113 107 119 128 141 144 153 123 131 122 136 138
155 90 87 86 129 130 152 139 89 84 149 123 89 131 137 101 98 121 130 104 110 143 119 136 129 101 123 124 128 125 121 120 131 118 118 143 142 143 147 117 134 135 149
87 144 155 156 114 122 125 97 88 100 98 88 87 91 129 135 95 125 117 135 149 148 120 129 130 125 132 117 109 113 116 119 111 114 128 126 148 147 137 125 93 145 138
152 94 93 141 117 94 124 127 124 116 94 106 121 117 100 119 90 126 131 105 121 104 118 105 110 115 124 131 156 98 109 117 115 136 126 147 155 111 120 121 135 141 141
92 90 90 88 157 104 111 88 95 89 100 112 126 123 110 140 151 110 108 152 136 138 128 128 119 132 118 114 113 101 149 123 122 92 141 138 133 136 131 134 135 132 142
102 87 96 96 87 97 99 114 131 123 125 102 99 105 126 87 125 147 106 141 143 121 128 124 140 148 146 113 123 144 149 148 151 185 124 127 130 138 142 137 137 133 140
98 145 142 97 102 96 93 106 96 108 98 96 106 111 94 110 123 108 108 106 112 129 139 122 127 131 101 132 81 132 150 152 147 126 183 148 137 137 130 130 137 143 143
126 90 115 87 100 148 99 118 96 95 107 119 108 108 114 131 117 139 135 133 123 138 141 141 143 141 118 131 127 123 171 155 140 157 139 136 76 137 145 145 144 135 127
128 128 103 119 100 107 144 147 102 109 98 91 93 124 102 126 121 109 128 123 121 136 113 119 139 140 131 126 126 154 152 153 146 135 134 136 137 139 135 146 138 139 137
152 186 118 155 115 125 153 148 133 121 84 132 151 146 110 113 134 123 123 123 126 142 125 119 124 121 127 135 83 157 148 145 147 86 137 141 149 149 136 143 126 143 153
141 153 158 155 157 114 110 123 134 143 143 106 133 153 143 143 141 141 133 131 134 132 129 134 132 139 96 144 137 163 83 152 93 84 158 151 156 155 137 147 146 148 144
157 151 157 145 120 160 158 147 131 136 128 145 150 149 153 158 129 136 136 123 144 146 141 134 135 143 118 104 110 150 169 150 105 138 147 140 155 145 150 157 156 143 127
76 78 129 125 106 128 127 158 168 145 147 144 142 148 159 150 150 150 150 138 99 156 95 142 150 76 132 139 144 128 148 112 153 144 142 133 138 139 135 144 165 154 145
81 182 147 139 135 137 147 83 127 155 159 162 149 76 135 110 87 160 157 77 78 86 77 159 156 88 142 159 143 101 143 144 141 142 141 136 140 138 142 143 134 136 162
173 157 158 78 121 135 142 149 104 106 134 132 139 159 119 83 83 159 72 74 141 155 125 160 109 148 157 108 141 137 133 137 136 134 134 136 142 144 151 127 132 150 160
101 149 152 77 115 136 141 79 90 145 144 132 124 74 82 81 78 113 123 78 149 74 121 88 145 142 146 146 146 143 140 143 149 147 142 143 137 142 155 152 160 139 154
169 187 166 159 169 70 73 71 72 72 84 89 145 136 129 138 83 85 151 141 83 142 91 153 145 146 144 142 143 151 150 148 146 141 151 153 160 151 159 165 161 151 164
162 172 188 157 176 82 100 90 81 137 75 113 77 77 78 94 144 138 149 151 152 141 144 153 156 154 145 144 156 151 144 147 143 149 167 153 152 162 165 166 153 166 160
164 163 172 173 172 195 169 175 166 156 159 153 160 156 150 152 156 156 156 160 161 156 160 155 157 160 160 161 158 147 156 163 167 154 153 150 165 152 168 156 177 186 188
189 151 143 144 157 177 162 162 156 155 165 159 165 161 160 155 158 159 147 149 145 147 155 157 154 149 146 147 161 165 160 159 158 144 153 169 172 166 143 183 188 187 193
192 175 169 136 127 176 188 171 173 166 156 145 163 157 157 165 164 166 165 160 160 157 152 158 154 157 157 161 161 151 163 161 145 170 172 186 146 192 185 193 188 187 181
165 162 183 168 185 159 131 184 178 170 179 164 167 165 160 155 163 162 142 161 151 150 163 160 164 167 180 189 172 169 166 171 176 189 178 158 197 192 191 185 187 168 187
200 178 172 160 175 171 175 197 172 157 165 168 158 163 174 167 160 163 166 163 166 168 163 165 173 180 176 190 183 177 178 136 190 189 187 134 163 159 183 146 185 151 161
190 199 199 197 170 180 165 188 135 168 174 157 167 174 155 164 178 170 155 167 169 146 168 136 179 171 126 155 185 172 131 124 172 133 122 145 176 168 163 176 186 152 161
155 183 187 206 210 153 157 167 180 207 174 188 174 171 186 186 171 123 172 175 177 169 146 187 177 190 170 170 178 183 177 169 179 155 185 187 138 148 192 134 181 160 156
178 159 159 186 174 211 209 176 175 185 186 180 205 186 188 195 195 190 190 185 150 169 170 150 180 147 159 131 118 119 125 149 129 121 139 182 175 137 143 178 191 194 200
Wind_Speed
43 10 29 30 24 5 18 16 26 17 34 12 33 29 18 11 17 20 28 24 26 27 22 28 29 30 28 29 28 29 31 32 28 35 34 40 39 35 44 46 42 47 49
44 11 10 9 41 39 31 40 10 9 33 23 8 29 31 19 17 27 30 24 27 32 31 30 28 25 31 30 32 32 32 34 40 36 37 44 43 40 40 39 47 49 46
16 42 44 41 27 41 42 15 12 16 14 11 12 11 32 33 18 31 28 32 33 32 31 32 32 32 34 31 31 33 34 37 37 38 42 45 44 43 45 44 28 49 53
46 20 19 40 27 16 30 44 39 28 17 22 31 27 21 28 15 34 34 29 31 29 33 29 32 33 36 37 37 26 36 39 35 42 45 43 42 36 37 37 51 51 53
22 20 19 17 43 24 28 15 19 18 22 28 37 35 28 41 39 29 22 36 34 36 37 36 34 39 38 37 36 18 41 38 44 22 46 47 47 48 49 50 51 51 55
29 19 31 27 17 26 26 33 48 38 40 25 22 25 39 16 37 41 24 37 36 37 40 38 41 39 39 31 43 40 41 43 43 40 46 40 47 48 49 51 53 54 57
33 47 53 32 33 27 21 29 27 35 26 24 32 34 21 33 41 33 34 33 36 39 41 42 43 43 29 42 14 40 42 42 44 49 39 46 49 50 50 51 56 57 58
48 26 40 24 31 50 31 31 28 27 38 42 37 33 39 43 41 46 45 45 44 42 43 44 44 43 45 44 47 49 42 43 46 43 48 50 23 52 56 57 57 55 53
57 54 41 48 38 42 55 53 33 38 32 25 27 45 33 46 45 38 47 46 46 47 39 45 48 46 47 48 49 45 45 45 45 50 51 47 54 55 54 59 57 59 60
65 57 53 59 49 52 54 56 57 51 18 47 52 54 41 41 54 49 50 49 51 50 51 50 50 46 51 52 26 45 47 48 48 32 51 53 54 57 56 58 53 61 61
67 69 64 62 60 51 47 48 57 57 52 38 47 52 54 55 56 56 57 55 56 56 56 55 56 55 33 51 54 43 32 48 41 27 49 52 54 56 57 61 62 62 63
77 69 65 62 52 60 58 56 52 59 59 54 54 54 53 52 56 59 60 49 59 57 57 59 59 57 47 37 44 51 43 51 39 50 51 54 53 55 59 59 59 63 54
19 16 65 61 43 63 61 60 58 57 56 58 58 55 53 55 57 58 58 61 32 54 31 50 55 21 46 50 56 53 55 44 52 55 55 58 60 60 59 61 62 63 66
24 71 70 66 66 56 63 23 59 58 57 56 59 16 59 36 21 57 57 19 24 28 23 53 54 33 58 52 58 47 58 59 59 57 58 62 62 62 63 62 62 60 67
83 79 79 25 48 64 64 67 39 36 62 61 48 59 41 26 26 57 19 23 53 57 42 53 44 52 54 51 61 61 62 63 63 62 61 63 62 64 66 58 63 65 70
45 62 79 26 52 63 66 27 30 67 60 48 48 21 26 26 22 47 50 31 60 22 49 45 57 58 58 60 62 64 65 62 65 64 66 66 66 65 69 68 73 67 72
80 79 88 83 88 20 22 18 20 17 29 40 62 61 61 66 34 34 66 63 40 62 49 61 60 61 62 64 65 66 66 66 66 67 67 69 72 66 75 80 76 74 83
78 86 76 67 73 43 52 43 42 67 30 52 33 33 32 48 68 67 69 68 68 65 65 66 65 65 65 66 68 68 67 69 69 70 76 72 72 80 83 83 71 84 76
83 79 87 89 89 75 85 85 80 74 78 72 77 74 73 73 75 73 74 76 74 72 72 71 72 72 72 72 72 71 74 78 80 73 73 70 84 72 87 78 94 95 93
90 73 65 69 74 93 81 81 75 72 83 79 82 80 79 78 79 79 68 69 67 66 73 75 73 68 67 69 78 80 77 77 76 71 75 87 86 82 65 91 92 92 93
88 87 86 66 64 88 97 89 89 85 75 66 84 80 78 82 82 83 83 82 81 79 72 78 77 77 78 81 79 73 82 83 72 90 91 99 69 94 88 90 88 90 90
78 78 90 87 95 79 62 98 88 87 89 82 86 87 82 75 82 83 69 84 77 76 85 80 85 86 94 91 88 85 85 89 94 96 90 79 93 91 91 90 89 79 91
90 87 88 82 91 89 83 99 88 79 81 88 80 86 92 89 85 87 89 85 89 90 86 88 93 96 89 96 93 91 92 73 97 94 91 64 81 72 88 66 89 69 73
85 91 94 97 87 93 81 91 68 88 95 83 87 96 77 85 96 93 84 93 93 71 88 70 97 87 68 82 95 83 70 60 83 77 51 79 88 80 81 90 94 69 81
82 86 87 95 102 78 77 84 92 92 92 105 98 92 99 100 94 68 98 99 98 93 79 101 93 97 86 87 91 92 89 82 88 75 93 96 70 67 97 61 93 77 75
88 84 84 88 87 100 100 92 93 97 97 98 105 100 102 104 105 103 102 98 73 88 92 80 95 81 77 69 64 63 70 77 70 54 79 96 90 68 68 95 106 107 113
Wind_Direction
232 205 230 239 246 229 256 258 246 247 255 269 254 262 297 292 283 287 281 294 301 300 313 295 305 303 304 305 308 309 311 313 316 317 311 309 307 296 322 317 322 313 310
234 228 219 238 241 243 241 241 236 222 245 261 278 271 266 278 275 288 282 309 301 283 295 293 295 313 301 304 307 308 308 310 313 315 317 308 308 307 301 319 313 313 306
224 234 233 235 244 248 252 276 234 268 251 252 258 288 276 269 282 282 287 282 282 287 289 290 294 296 302 304 307 307 308 310 315 315 312 315 304 305 309 313 317 306 314
235 246 254 239 233 264 240 253 258 244 270 280 273 277 297 277 293 281 281 305 293 307 295 304 302 300 300 302 299 310 310 309 310 304 311 306 302 315 307 304 314 310 312
247 244 249 245 237 259 257 256 270 248 284 277 272 276 286 272 267 292 286 276 285 286 291 294 298 297 302 305 308 319 299 304 308 316 304 307 310 309 313 314 314 317 311
244 238 253 259 239 266 267 257 252 260 263 263 288 289 277 272 282 272 280 279 280 294 294 298 288 291 292 297 303 298 298 298 298 294 308 304 308 307 305 310 312 315 311
243 238 241 258 257 263 259 261 273 276 281 276 284 285 274 293 285 296 296 295 296 287 284 299 297 296 292 297 319 298 298 297 299 306 294 300 305 305 310 313 312 309 308
245 239 242 237 246 241 258 251 265 270 277 271 284 272 286 275 290 276 281 284 291 284 284 286 288 291 299 294 297 300 299 299 299 299 301 302 310 308 302 304 307 311 318
246 245 245 246 249 258 243 241 259 264 271 272 279 275 283 279 285 290 286 290 293 285 294 296 290 292 293 295 297 299 299 300 299 300 302 300 304 305 308 306 308 308 309
241 238 252 240 256 255 242 243 254 266 265 264 254 261 281 283 276 283 286 288 288 281 289 293 294 295 294 294 312 298 297 297 299 316 298 300 297 297 305 301 313 306 306
243 241 238 240 243 258 259 254 254 250 253 271 266 259 265 268 272 273 279 281 283 285 288 288 290 290 304 294 297 296 314 294 310 306 294 296 297 297 304 301 304 305 306
239 241 241 244 249 247 249 253 251 256 266 255 260 259 261 261 276 275 276 279 277 279 283 288 289 287 295 298 303 294 294 292 302 300 296 300 297 301 300 300 302 307 315
255 258 247 250 252 252 257 252 252 253 255 257 259 259 261 261 265 268 270 276 287 276 294 282 282 302 293 289 290 298 290 297 290 295 299 304 303 303 307 302 309 306 307
249 238 246 247 250 250 252 264 259 256 255 256 259 288 267 272 284 267 269 300 303 296 307 279 280 299 287 287 287 302 290 291 294 295 296 300 300 304 301 302 305 307 313
232 240 244 262 249 252 254 254 264 262 261 265 261 261 267 285 288 268 295 296 276 275 282 278 294 285 285 294 286 289 295 293 297 299 300 299 298 298 301 309 312 304 309
248 236 245 258 250 249 252 268 264 258 258 258 260 290 293 292 289 277 274 294 273 298 284 301 277 279 279 280 281 282 286 291 287 288 291 294 299 301 303 303 308 306 305
235 236 238 240 244 253 262 260 270 272 276 278 259 264 270 269 292 292 271 274 296 277 295 279 276 276 277 279 280 282 284 286 287 290 293 295 298 300 304 305 308 304 307
240 235 233 246 243 266 260 262 271 259 277 267 281 286 289 284 268 272 272 274 275 278 278 279 279 279 279 281 284 284 287 288 290 292 297 297 303 304 305 306 302 306 305
240 240 238 241 244 241 247 243 247 257 257 262 260 262 265 266 267 270 272 273 274 277 279 281 283 283 283 284 286 289 290 293 295 295 297 299 300 304 304 304 305 306 307
233 245 246 247 249 246 249 251 253 256 252 258 256 260 262 265 266 269 272 275 276 277 280 281 284 284 284 285 289 290 291 292 293 295 296 297 300 302 301 303 305 305 308
236 239 243 251 251 248 247 250 248 252 260 261 259 264 267 264 264 265 267 272 274 277 281 280 283 284 285 286 289 288 291 291 293 293 295 295 299 300 300 304 303 305 305
242 244 241 245 245 251 254 249 250 254 250 258 259 261 265 270 267 268 271 271 275 278 278 281 281 284 284 283 286 288 290 291 292 291 295 298 298 301 301 302 303 305 306
238 241 246 247 246 251 249 249 253 254 258 257 262 262 258 263 269 270 271 274 275 277 280 282 283 284 284 285 284 286 287 292 290 294 296 304 300 303 301 303 303 306 303
237 238 240 242 248 247 252 250 253 253 254 260 262 260 265 266 263 267 271 272 273 274 279 278 279 282 288 287 285 288 293 300 289 299 299 295 298 300 301 301 302 304 308
244 238 240 242 243 252 253 254 253 249 258 255 261 264 261 262 267 273 268 271 273 276 276 274 278 277 284 286 285 285 288 290 291 293 293 295 301 294 300 305 303 305 303
238 244 246 242 248 244 246 250 253 254 256 257 254 260 262 262 262 264 266 269 276 275 278 282 282 282 280 288 293 293 291 292 290 288 294 297 297 298 299 302 301 302 302